Simultaneous Nadir Overpasses (SNOs) Predictions

Prediction of SNOs between GOES-16 and METOP-B Satellite Orbit:

Table of predicted SNOs for the next 14.0 days since TLE Epoch: 5/13/2023
Index Date Time (GOES-16) GOES-16 Lat,Lon METOP-B Lat,Lon Distance(km) Time Diff (sec)
1 05/14/2023 14:44:55 0.02, -75.20 0.85, -78.98 429.57 80
2 05/15/2023 14:24:15 0.02, -75.21 -0.27, -73.98 140.77 80
3 05/17/2023 02:45:53 -0.02, -75.22 -0.79, -78.57 382.29 80
4 05/18/2023 02:22:32 -0.02, -75.23 0.32, -73.57 188.41 80
5 05/19/2023 14:44:03 0.02, -75.26 0.66, -78.13 327.44 80
6 05/20/2023 14:20:42 0.02, -75.27 -0.46, -73.14 243.47 80
7 05/22/2023 02:42:20 -0.02, -75.28 -0.59, -77.72 278.82 80
8 05/23/2023 02:19:00 -0.02, -75.30 0.54, -72.73 292.35 80
9 05/24/2023 14:40:30 0.01, -75.34 0.44, -77.29 222.65 80
10 05/25/2023 14:17:10 0.01, -75.36 -0.69, -72.30 349.02 80
11 05/27/2023 02:38:48 -0.01, -75.38 -0.34, -76.89 171.86 80
